Weather History for Topeka, KS

Change the Weather History Date:

Wednesday, December 4, 2013

  Actual Average Record
Temperature  
Mean Temperature 30 °F 35 °F  
Max Temperature 39 °F 45 °F 72 °F (2001)
Min Temperature 21 °F 25 °F 8 °F (1902)
Degree Days  
Heating Degree Days 35 30  
Month to date heating degree days 95 118  
Since 1 July heating degree days 1091 1112  
Cooling Degree Days 0 0  
Month to date cooling degree days 0 0  
Year to date cooling degree days 1586 1422  
Moisture  
Dew Point 27 °F    
Average Humidity 76    
Maximum Humidity 92    
Minimum Humidity 59    
Precipitation  
Precipitation 0.02 in 0.05 in 3.22 in (1944)
Month to date precipitation 0.02 0.21  
Year to date precipitation 33.47 35.32  
Snow  
Snow T in 0.10 in 3.00 in (1973)
Month to date snowfall T 0.5  
Year to date snowfall 24.2 13.1  
Since 1 July snowfall T 1.8  
Snow Depth 0.00 in    
Sea Level Pressure  
Sea Level Pressure 29.75 in    
Wind  
Wind Speed 13 mph (NW)    
Max Wind Speed 25 mph    
Max Gust Speed 32 mph    
Visibility 6 miles    
Events Rain , Snow    
T = Trace of Precipitation, MM = Missing Value Source: NWS Daily Summary

Daily Weather History Graph

Daily Weather History Graph

Search for Another Location

Airport:

Trip Planner

Search our weather history database for the weather conditions in past years. The results will help you decide how hot, cold, wet, or windy it might be!

Date:

Astronomy

Dec. 04, 2013 Rise Set
Actual Time 7:25 AM CST 4:59 PM CST
Civil Twilight 6:56 AM CST 5:29 PM CST
Nautical Twilight 6:22 AM CST 6:02 PM CST
Astronomical Twilight 5:50 AM CST 6:35 PM CST
Moon 8:55 AM CST (12/4) 7:11 PM CST (12/4)
Length of Visible Light 10h 33m
Length of Day
9h 34m
Waxing Crescent, 4% of the Moon is Illuminated
Dec 4
Waxing Crescent
Dec 9
First Quarter
Dec 17
Full
Dec 25
Last Quarter
Jan 1
New

Hourly Weather History & Observations

Time (CST) Temp. Windchill Dew Point Humidity Pressure Visibility Wind Dir Wind Speed Gust Speed Precip Events Conditions
12:53 AM 39.0 °F 34.0 °F 34.0 °F 82% 29.60 in 3.0 mi NNE 6.9 mph - N/A   Haze
1:31 AM 39.0 °F 34.8 °F 35.1 °F 86% 29.60 in 3.0 mi North 5.8 mph - N/A   Overcast
1:41 AM 37.9 °F 32.7 °F 35.1 °F 89% 29.60 in 2.5 mi North 6.9 mph - N/A   Overcast
1:53 AM 37.9 °F 32.7 °F 35.1 °F 89% 29.59 in 2.5 mi North 6.9 mph - N/A   Overcast
2:53 AM 39.0 °F 34.8 °F 36.0 °F 89% 29.59 in 2.5 mi NNW 5.8 mph - N/A   Overcast
3:28 AM 39.0 °F 34.0 °F 36.0 °F 89% 29.60 in 1.8 mi NW 6.9 mph - N/A   Overcast
3:53 AM 39.0 °F 34.8 °F 37.0 °F 93% 29.59 in 1.0 mi NNW 5.8 mph - N/A   Overcast
4:28 AM 39.0 °F 34.0 °F 36.0 °F 89% 29.58 in 1.2 mi NNW 6.9 mph - N/A   Overcast
4:53 AM 39.0 °F 33.4 °F 36.0 °F 89% 29.56 in 1.8 mi NNE 8.1 mph - N/A   Overcast
5:53 AM 39.0 °F 33.4 °F 36.0 °F 89% 29.57 in 1.5 mi NW 8.1 mph - N/A   Overcast
6:26 AM 39.0 °F 34.0 °F 37.0 °F 93% 29.61 in 1.2 mi WNW 6.9 mph - N/A   Overcast
6:53 AM 39.0 °F 33.4 °F 37.0 °F 93% 29.62 in 1.2 mi WNW 8.1 mph - 0.01 in   Overcast
7:51 AM 37.4 °F 29.3 °F 35.6 °F 93% 29.62 in 2.0 mi NW 12.7 mph - N/A   Overcast
7:53 AM 37.9 °F 30.0 °F 36.0 °F 93% 29.63 in 2.5 mi NW 12.7 mph - N/A   Overcast
8:01 AM 37.0 °F 27.7 °F 35.1 °F 93% 29.63 in 3.0 mi NW 16.1 mph 20.7 mph N/A   Overcast
8:19 AM 37.0 °F 27.4 °F 34.0 °F 89% 29.64 in 4.0 mi NW 17.3 mph 23.0 mph N/A   Overcast
8:38 AM 34.0 °F 23.4 °F 30.9 °F 89% 29.67 in 2.5 mi NW 17.3 mph - 0.00 in Rain Light Rain
8:53 AM 34.0 °F 23.0 °F 30.0 °F 85% 29.68 in 2.5 mi NW 18.4 mph - 0.00 in   Overcast
9:08 AM 33.1 °F 22.6 °F 30.0 °F 89% 29.67 in 4.0 mi NW 16.1 mph - N/A   Overcast
9:24 AM 34.0 °F 26.0 °F 30.0 °F 85% 29.68 in 10.0 mi WNW 10.4 mph 20.7 mph N/A   Overcast
9:42 AM 34.0 °F 26.0 °F 30.0 °F 85% 29.68 in 10.0 mi NW 10.4 mph - N/A   Overcast
9:53 AM 34.0 °F 24.6 °F 30.0 °F 85% 29.70 in 10.0 mi WNW 13.8 mph 21.9 mph N/A   Overcast
10:53 AM 32.0 °F 21.2 °F 27.0 °F 82% 29.73 in 10.0 mi WNW 16.1 mph - N/A   Overcast
11:19 AM 30.9 °F 19.8 °F 26.1 °F 82% 29.71 in 10.0 mi WNW 16.1 mph 23.0 mph N/A   Overcast
11:53 AM 30.9 °F 19.8 °F 26.1 °F 82% 29.73 in 10.0 mi WNW 16.1 mph 23.0 mph N/A   Overcast
12:53 PM 30.0 °F 18.7 °F 25.0 °F 82% 29.75 in 10.0 mi WNW 16.1 mph 24.2 mph N/A   Overcast
1:53 PM 28.9 °F 17.7 °F 23.0 °F 78% 29.78 in 10.0 mi WNW 15.0 mph 25.3 mph N/A   Overcast
2:53 PM 28.0 °F 14.6 °F 21.0 °F 75% 29.80 in 10.0 mi WNW 20.7 mph 27.6 mph N/A   Overcast
3:09 PM 28.0 °F 15.3 °F 21.0 °F 75% 29.80 in 10.0 mi WNW 18.4 mph 24.2 mph N/A   Overcast
3:53 PM 28.0 °F 17.5 °F 19.9 °F 72% 29.83 in 10.0 mi WNW 12.7 mph 23.0 mph N/A   Overcast
4:53 PM 27.0 °F 15.6 °F 19.0 °F 72% 29.87 in 10.0 mi WNW 13.8 mph 21.9 mph N/A   Overcast
5:53 PM 26.1 °F 14.5 °F 18.0 °F 71% 29.92 in 10.0 mi WNW 13.8 mph - N/A   Overcast
6:53 PM 25.0 °F 14.8 °F 16.0 °F 69% 29.95 in 10.0 mi NW 10.4 mph - N/A   Overcast
7:50 PM 24.8 °F 15.3 °F 15.8 °F 69% 29.96 in 10.0 mi WNW 9.2 mph - N/A   Mostly Cloudy
7:53 PM 25.0 °F 15.5 °F 15.1 °F 66% 29.98 in 10.0 mi WNW 9.2 mph - N/A   Mostly Cloudy
8:53 PM 25.0 °F 16.3 °F 14.0 °F 63% 30.01 in 10.0 mi WNW 8.1 mph 18.4 mph N/A   Mostly Cloudy
9:53 PM 25.0 °F 12.6 °F 12.0 °F 58% 30.04 in 10.0 mi NW 15.0 mph 20.7 mph N/A   Clear
10:53 PM 23.0 °F 10.1 °F 10.0 °F 58% 30.08 in 10.0 mi NW 15.0 mph - N/A   Clear
11:53 PM 21.0 °F 4.3 °F 10.0 °F 63% 30.12 in 5.0 mi NW 24.2 mph 31.1 mph 0.00 in Snow Light Snow